EW1858 Weather Reports


Display with metric or nautical units.
time (UTC)temp
F
wind
direction
speed
MPH
gust
MPH
rain 1hr
in
rain 24hr
in
rain mn
in
humidity
%
barometer
mb
20260509100015 48 55 0.0 1.0 0.00 0.00 0.00 90 1010.1
20260509094514 48 53 0.0 2.0 0.00 0.00 0.00 90 1009.9
20260509093016 48 347 1.0 1.0 0.00 0.00 0.00 90 1009.9
20260509091512 48 32 0.0 4.0 0.00 0.00 0.00 91 1009.7
20260509090011 48 44 0.0 2.0 0.00 0.00 0.00 90 1009.6
20260509084509 48 46 0.0 0.0 0.00 0.00 0.00 89 1009.8
20260509083027 48 46 0.0 0.0 0.00 0.00 0.00 89 1009.6
20260509081539 48 46 0.0 1.0 0.00 0.00 0.00 89 1009.8
20260509080040 48 46 0.0 1.0 0.00 0.00 0.00 89 1009.9
20260509074507 48 343 0.0 0.0 0.00 0.00 0.00 88 1009.7
20260509073013 48 343 0.0 0.0 0.00 0.00 0.00 87 1009.9
20260509071610 48 343 0.0 0.0 0.00 0.00 0.00 87 1009.9
20260509070034 48 343 0.0 0.0 0.00 0.00 0.00 86 1010.0
20260509064537 49 343 0.0 0.0 0.00 0.00 0.00 85 1010.3
20260509063003 49 343 0.0 1.0 0.00 0.00 0.00 85 1010.5
20260509061508 49 343 0.0 0.0 0.00 0.00 0.00 85 1010.7
20260509060109 49 343 0.0 1.0 0.00 0.00 0.00 85 1010.9
20260509054601 49 342 0.0 1.0 0.00 0.00 0.00 85 1010.8
20260509053121 49 342 0.0 1.0 0.00 0.00 0.00 84 1011.2
20260509051555 49 284 0.0 1.0 0.00 0.00 0.00 83 1011.3
20260509050026 50 285 0.0 1.0 0.00 0.00 0.00 81 1011.3
20260509044522 50 285 0.0 1.0 0.00 0.00 0.00 80 1011.4
20260509043020 50 284 1.0 2.0 0.00 0.00 0.00 79 1011.5
20260509041519 50 233 1.0 3.0 0.00 0.00 0.00 79 1011.3
20260509040027 50 279 1.0 2.0 0.00 0.00 0.00 81 1011.2
20260509034518 50 129 0.0 1.0 0.00 0.00 0.00 82 1011.1
20260509033049 50 129 1.0 2.0 0.00 0.00 0.00 82 1011.2
20260509031557 50 97 1.0 2.0 0.00 0.00 0.00 81 1011.2
20260509030101 50 53 0.0 2.0 0.00 0.00 0.00 80 1011.2
20260509024542 50 36 0.0 0.0 0.00 0.00 0.00 79 1011.2
20260509023040 51 36 0.0 1.0 0.00 0.00 0.00 78 1011.3
20260509021541 50 328 0.0 1.0 0.00 0.00 0.00 77 1011.4
20260509020011 51 328 0.0 1.0 0.00 0.00 0.00 76 1011.3
20260509014508 52 307 0.0 1.0 0.00 0.00 0.00 74 1011.2
20260509013035 52 310 1.0 3.0 0.00 0.00 0.00 74 1011.2
20260509011533 52 149 0.0 0.0 0.00 0.00 0.00 73 1011.1
20260509010059 53 149 0.0 2.0 0.00 0.00 0.00 71 1010.8
20260509004603 55 146 0.0 0.0 0.00 0.00 0.00 68 1010.6
20260509003054 56 146 0.0 1.0 0.00 0.00 0.00 66 1010.4
20260509001545 57 144 0.0 1.0 0.00 0.00 0.00 63 1010.7
20260509000043 58 144 0.0 1.0 0.00 0.00 0.00 61 1010.7
20260508234543 59 144 0.0 1.0 0.00 0.00 0.00 57 1010.6
20260508233013 59 146 1.0 4.0 0.00 0.00 0.00 55 1010.6
20260508231512 60 133 1.0 6.0 0.00 0.00 0.00 54 1010.6
20260508230040 61 117 4.0 8.0 0.00 0.00 0.00 53 1010.4
20260508224553 60 124 3.0 5.0 0.00 0.00 0.00 55 1010.4
20260508223029 60 95 1.0 9.0 0.00 0.00 0.00 55 1010.4
20260508221510 60 125 3.0 12.0 0.00 0.00 0.00 54 1010.6
20260508220048 60 119 5.0 12.0 0.00 0.00 0.00 55 1010.9
20260508214538 60 119 6.0 17.0 0.00 0.00 0.00 54 1010.9
20260508213019 61 117 10.0 17.0 0.00 0.00 0.00 53 1010.7
20260508211508 61 139 8.0 14.0 0.00 0.00 0.00 51 1010.7
20260508210008 61 146 8.0 16.0 0.00 0.00 0.00 51 1010.5
20260508204503 61 139 4.0 9.0 0.00 0.00 0.00 53 1010.5
20260508203007 61 139 3.0 9.0 0.00 0.00 0.00 53 1010.6
20260508201503 60 214 4.0 8.0 0.00 0.00 0.00 54 1010.7
20260508200059 61 102 4.0 10.0 0.00 0.00 0.00 53 1010.9
20260508194558 61 84 8.0 14.0 0.00 0.00 0.00 51 1010.7
20260508193103 62 117 3.0 17.0 0.00 0.00 0.00 48 1010.7
20260508191557 63 115 3.0 13.0 0.00 0.00 0.00 45 1010.6
20260508190026 63 91 5.0 12.0 0.00 0.00 0.00 44 1010.8
20260508184526 62 144 11.0 24.0 0.00 0.00 0.00 43 1011.1
20260508183055 63 103 2.0 15.0 0.00 0.00 0.00 41 1010.8
20260508181558 65 140 1.0 7.0 0.00 0.00 0.00 39 1010.7
20260508180026 66 103 7.0 16.0 0.00 0.00 0.00 38 1010.9
20260508174521 66 103 6.0 17.0 0.00 0.00 0.00 37 1011.2
20260508173126 65 146 9.0 20.0 0.00 0.00 0.00 37 1011.4
20260508171546 64 71 3.0 18.0 0.00 0.00 0.00 41 1011.4
20260508170045 63 109 4.0 18.0 0.00 0.00 0.00 43 1011.6
20260508164511 64 247 2.0 8.0 0.00 0.00 0.00 43 1011.7
20260508163012 63 91 8.0 17.0 0.00 0.00 0.00 45 1012.1
20260508161601 61 106 4.0 13.0 0.00 0.00 0.00 46 1012.3
20260508160055 61 66 4.0 14.0 0.00 0.00 0.00 46 1012.4
20260508154609 59 73 3.0 17.0 0.00 0.00 0.00 48 1012.6
20260508153053 60 79 9.0 24.0 0.00 0.00 0.00 46 1012.6
20260508151520 59 341 2.0 10.0 0.00 0.00 0.00 47 1012.6
20260508150040 58 97 9.0 19.0 0.00 0.00 0.00 49 1012.4
20260508144511 59 115 5.0 13.0 0.00 0.00 0.00 47 1012.4
20260508143011 57 113 3.0 14.0 0.00 0.00 0.00 49 1012.6
20260508141508 57 109 2.0 15.0 0.00 0.00 0.00 50 1012.7
20260508140011 56 111 7.0 13.0 0.00 0.00 0.00 51 1012.8
20260508134535 55 117 9.0 16.0 0.00 0.00 0.00 52 1012.9
20260508133035 53 103 8.0 15.0 0.00 0.00 0.00 55 1013.0
20260508131533 52 82 6.0 16.0 0.00 0.00 0.00 57 1013.2
20260508130032 50 87 6.0 10.0 0.00 0.00 0.00 59 1013.4
20260508124534 47 79 3.0 6.0 0.00 0.00 0.00 71 1013.4
20260508123035 43 160 0.0 1.0 0.00 0.00 0.00 81 1013.5
20260508121502 40 79 0.0 0.0 0.00 0.00 0.00 84 1013.7
20260508120003 39 79 0.0 0.0 0.00 0.00 0.00 86 1013.6
20260508114533 39 79 0.0 0.0 0.00 0.00 0.00 88 1013.5
20260508113029 38 79 0.0 0.0 0.00 0.00 0.00 89 1013.5
20260508111605 37 79 0.0 0.0 0.00 0.00 0.00 91 1013.4
20260508110108 36 79 0.0 0.0 0.00 0.00 0.00 93 1013.4
20260508104526 36 79 0.0 0.0 0.00 0.00 0.00 93 1013.3
20260508103025 35 79 0.0 0.0 0.00 0.00 0.00 93 1013.1
20260508101556 35 79 0.0 0.0 0.00 0.00 0.00 92 1013.1